{"data":{"norad_id":57252,"intl_designator":"2023-094AL","name":"STARLINK-5511","alt_names":[],"object_type":"PAYLOAD","status":"ACTIVE","operator":null,"country":"US","launch_date":"2023-07-07","launch_site_code":"AFWTR","launch_vehicle":null,"mission":null,"orbit_class":"UNKNOWN","rcs_meters":null,"size_class":null,"mass_kg":null,"dimensions":null,"purposes":["comms"],"wikipedia_slug":null,"has_3d_model":false,"image_url":null,"decayed_at":null,"tle_current":{"epoch":"2026-05-24T19:04:56.313408Z","epoch_age_seconds":92502,"freshness":"FRESH","line1":"1 57252U 23094AL  26144.79509622  .00002852  00000+0  11311-3 0  9992","line2":"2 57252  43.0041 309.7106 0002336 268.5449  91.5135 15.27584871158885","mean_motion":15.27584871,"eccentricity":0.0002336,"inclination_deg":43.0041,"raan_deg":309.7106,"arg_perigee_deg":268.5449,"mean_anomaly_deg":91.5135,"bstar":0.00011311,"rev_number":15888,"period_min":94.26644812588,"perigee_km":481.43174088721,"apogee_km":484.63728021694,"semimajor_km":6861.1715105521,"source":"CELESTRAK","updated_at":"2026-05-25T13:38:18.277940Z"}}}